This is the latest recevied weather packets stored in our database for station/object N4CRH-13. If no packets are shown the sender has not sent any weather packets the latest 10 day(s).
| Time | Temp. | Humidity | Pressure | Rain* | Wind** | Luminosity | Snow |
|---|---|---|---|---|---|---|---|
| 1777800293 | 11.67° C | 30% | 1296.7 hPa | 0 mm | - | 0 W/m² | - |
| 1777799988 | 12.22° C | 29% | 1296.7 hPa | 0 mm | - | 0 W/m² | - |
| 1777799685 | 12.22° C | 29% | 1296.5 hPa | 0 mm | - | 0 W/m² | - |
| 1777799382 | 11.67° C | 30% | 1296.5 hPa | 0 mm | - | 0 W/m² | - |
| 1777799078 | 11.67° C | 30% | 1296.4 hPa | 0 mm | - | 0 W/m² | - |
| 1777798773 | 11.67° C | 30% | 1296.7 hPa | 0 mm | - | 0 W/m² | - |
| 1777798470 | 11.67° C | 31% | 1296.8 hPa | 0 mm | - | 0 W/m² | - |
| 1777798167 | 11.67° C | 30% | 1296.5 hPa | 0 mm | - | 0 W/m² | - |
| 1777797865 | 11.67° C | 30% | 1296.8 hPa | 0 mm | - | 0 W/m² | - |
| 1777797562 | 11.67° C | 29% | 1296.5 hPa | 0 mm | - | 0 W/m² | - |
| 1777797259 | 11.67° C | 30% | 1296.7 hPa | 0 mm | - | 0 W/m² | - |
| 1777796956 | 11.67° C | 29% | 1296.4 hPa | 0 mm | - | 0 W/m² | - |
| 1777796653 | 11.67° C | 29% | 1296.5 hPa | 0 mm | - | 0 W/m² | - |
| 1777796348 | 12.22° C | 29% | 1296.5 hPa | 0 mm | - | 0 W/m² | - |
| 1777796044 | 11.67° C | 29% | 1296.7 hPa | 0 mm | - | 0 W/m² | - |
| 1777795741 | 12.22° C | 29% | 1296.7 hPa | 0 mm | - | 0 W/m² | - |
| 1777795438 | 11.11° C | 30% | 1296.5 hPa | 0 mm | - | 0 W/m² | - |
| 1777795134 | 8.89° C | 34% | 1296.5 hPa | 0 mm | - | 0 W/m² | - |
| 1777794830 | 6.67° C | 43% | 1296.7 hPa | 0 mm | - | 0 W/m² | - |
| 1777794527 | 7.22° C | 38% | 1296.8 hPa | 0 mm | - | 0 W/m² | - |
| 1777794222 | 5° C | 44% | 1297 hPa | 0 mm | - | 0 W/m² | - |
| 1777793919 | 5.56° C | 47% | 1297 hPa | 0 mm | - | 0 W/m² | - |
| 1777793617 | 5° C | 48% | 1296.9 hPa | 0 mm | - | 0 W/m² | - |
| 1777793314 | 6.11° C | 46% | 1297.1 hPa | 0 mm | - | 0 W/m² | - |
| 1777793011 | 7.22° C | 42% | 1297 hPa | 0 mm | - | 0 W/m² | - |
* Rain latest hour (hover to see other rain measurements)
** Current wind speed in m/s (hover to see current wind gust speed)